Weather History for MMTO - May, 2014

Change the Weather History Date:

Tuesday, May 13, 2014

  Actual Average Record
Temperature  
Mean Temperature 62 °F -  
Max Temperature 77 °F 73 °F 84 °F (1998)
Min Temperature 46 °F 44 °F 39 °F (1997)
Degree Days  
Heating Degree Days 4    
Growing Degree Days 12 (Base 50)    
Moisture  
Dew Point 43 °F    
Average Humidity 56    
Maximum Humidity 87    
Minimum Humidity 19    
Precipitation  
Precipitation 0.00 in - - ()
Sea Level Pressure  
Sea Level Pressure 30.30 in    
Wind  
Wind Speed 4 mph ()    
Max Wind Speed 16 mph    
Max Gust Speed -    
Visibility 5.6 miles    
Events      
Averages and records for this station are not official NWS values.
T = Trace of Precipitation, MM = Missing Value Source: Averaged Metar Reports

Daily Weather History Graph

Daily Weather History Graph

Search for Another Location

Airport or City:

Trip Planner

Search our weather history database for the weather conditions in past years. The results will help you decide how hot, cold, wet, or windy it might be!

Date:

Astronomy

May. 13, 2014 Rise Set
Actual Time 7:03 AM CDT 8:05 PM CDT
Civil Twilight 6:40 AM CDT 8:28 PM CDT
Nautical Twilight 6:12 AM CDT 8:56 PM CDT
Astronomical Twilight 5:44 AM CDT 9:25 PM CDT
Moon 7:17 PM CDT (5/13) 6:09 AM CDT (5/13)
Length of Visible Light 13h 48m
Length of Day
13h 01m
Waxing Gibbous, 99% of the Moon is Illuminated
May 13
Waxing Gibbous
May 14
Full
May 21
Last Quarter
May 28
New
Jun 5
First Quarter

Hourly Weather History & Observations

Time (CDT) Temp. Windchill Dew Point Humidity Pressure Visibility Wind Dir Wind Speed Gust Speed Precip Events Conditions
12:41 AM 55.4 °F - 46.4 °F 72% 30.32 in 5.0 mi Calm Calm - N/A   Scattered Clouds
1:46 AM 53.6 °F - 46.4 °F 77% 30.32 in 5.0 mi SE 8.1 mph - N/A   Scattered Clouds
2:42 AM 55.4 °F - 48.2 °F 77% 30.31 in 5.0 mi South 12.7 mph - N/A   Scattered Clouds
3:43 AM 53.6 °F - 48.2 °F 82% 30.38 in 4.0 mi Calm Calm - N/A   Scattered Clouds
4:43 AM 53.6 °F - 48.2 °F 82% 30.27 in 3.0 mi Calm Calm - N/A   Mostly Cloudy
5:44 AM 50.0 °F - 46.4 °F 87% 30.28 in 3.0 mi Calm Calm - N/A   Mostly Cloudy
6:53 AM 46.4 °F 45.2 °F 42.8 °F 87% 30.29 in 1.0 mi SE 3.5 mph - N/A   Partly Cloudy
8:43 AM 57.2 °F - 48.2 °F 72% 30.33 in 3.0 mi Calm Calm - N/A   Mostly Cloudy
9:46 AM 62.6 °F - 48.2 °F 59% 30.35 in 3.0 mi East 4.6 mph - N/A   Scattered Clouds
11:46 AM 69.8 °F - 42.8 °F 38% 30.34 in 6.0 mi WSW 5.8 mph - N/A   Partly Cloudy
12:43 PM 73.4 °F - 39.2 °F 29% 30.32 in 7.0 mi West 3.5 mph - N/A   Scattered Clouds
1:44 PM 73.4 °F - 35.6 °F 25% 30.30 in 8.0 mi WNW 8.1 mph - N/A   Mostly Cloudy
2:42 PM 77.0 °F - 33.8 °F 21% 30.26 in 7.0 mi SW 6.9 mph - N/A   Mostly Cloudy
3:43 PM 77.0 °F - 32.0 °F 19% 30.23 in 7.0 mi NW 12.7 mph - N/A   Mostly Cloudy
4:44 PM 73.4 °F - 41.0 °F 31% 30.21 in 7.0 mi NE 16.1 mph - N/A   Mostly Cloudy
5:51 PM 71.6 °F - 44.6 °F 38% 30.23 in 7.0 mi NNW 11.5 mph - N/A   Mostly Cloudy
6:42 PM 69.8 °F - 44.6 °F 40% 30.24 in 7.0 mi ENE 8.1 mph - N/A   Mostly Cloudy
7:43 PM 60.8 °F - 42.8 °F 52% 30.26 in 7.0 mi SE 9.2 mph - N/A   Mostly Cloudy
8:40 PM 57.2 °F - 39.2 °F 51% 30.28 in 7.0 mi SE 8.1 mph - N/A   Mostly Cloudy
9:47 PM 57.2 °F - 42.8 °F 59% 30.30 in 7.0 mi Calm Calm - N/A   Scattered Clouds
10:42 PM 57.2 °F - 46.4 °F 67% 30.32 in 7.0 mi Calm Calm - N/A   Scattered Clouds
11:41 PM 55.4 °F - 46.4 °F 72% 30.35 in 7.0 mi North 4.6 mph - N/A   Scattered Clouds